Location: An Tulaigh
(53.1928°N, 8.1647°W)
Time: 23:47:36
(UTC+00:00)

Terra - Pass Details

Date: 15 May 2026
Orbit: 689 x 690 km, 97.9° (Epoch: 11 June)

Event Time Altitude Azimuth Distance (km) Brightness Sun altitude
Rises 21:25:30 0° 189° (S) 3,051 4.7 -7.7°
Reaches altitude 10° 21:27:54 10° 198° (SSW) 2,140 4.0 -7.9°
Maximum altitude 21:32:11 35° 264° (W) 1,114 3.3 -8.3°
Drops below altitude 10° 21:36:31 10° 331° (NNW) 2,156 5.9 -8.8°
Sets 21:38:58 0° 340° (NNW) 3,078 6.7 -9.0°
